Location: Allison Elementary School
(34.0784°N, 117.7317°W)
Time: 10:04:16
(UTC+00:00)

Cosmos 158 Rocket - Pass Details

Date: 15 November 2019
Orbit: 699 x 792 km, 74.0° (Epoch: 14 December)

Event Time Altitude Azimuth Distance (km) Brightness Sun altitude
Rises 02:06:49 0° 178° (S) 3,269 7.4 -16.5°
Reaches altitude 10° 02:09:19 10° 172° (S) 2,339 6.5 -17.0°
Maximum altitude 02:14:19 43° 102° (ESE) 1,085 4.3 -18.0°
Enters shadow 02:16:18 30° 54° (NE) 1,359 4.8 -18.4°
